Volver al catálogo

STARLINK-33761

ActivoComunicacionesVLEO
NORAD 63455·PAYLOAD·🇺🇸 United States

Lanzado Apr 4, 2025 desde Vandenberg Space Force Base

Loading…

Próximos Pases (próximas 24 horas)

TLE

ActualizadoSource: CelesTrak SupGP

Época: Sep 14, 2026, 21:12 UTC

1 63455C 25069Y   26257.88381944 -.00017449  00000+0 -51557-3 0  2571
2 63455  53.1589 335.9089 0001126  76.4567 168.7396 15.34398083    13

Sigue STARLINK-33761 en tiempo real con AllMySat

Download on the App Store